User: anonymous   Login
Location: Pilipovskiye Korichintsy
(49.1833°N, 27.4667°E)
Time: 17:40:52
(UTC+00:00)
Language:

Cosmos 1741 Rocket - Orbit

View from above orbital plane
View from above orbital plane
View from above satellite
View from above satellite

Ground track
Ground track

The orbit data is extracted from the following two-line orbital elements,

1 16682U 86030B   20271.53898810 -.00000001  00000-0  88163-5 0  9997
2 16682  74.0276 185.4781 0015719 233.8232 300.1235 14.35908273803176
Epoch (UTC): 27 September 2020 12:56:08
Eccentricity: 0.0015719
inclination: 74.0276°
perigee height: 761 km
apogee height: 783 km
right ascension of ascending node: 185.4781°
argument of perigee: 233.8232°
revolutions per day: 14.35908273
mean anomaly at epoch: 300.1235°
orbit number at epoch: 80317

The dashed part of the orbit path shows where the satellite is in the earth's shadow,  

DLR